User: anonymous   Login
Location: Unspecified
(0.0000°N, 0.0000°E)
Time: 00:29:43
(UTC+02:00)
Language:

Meteor 1-10 Rocket - Orbit

View from above orbital plane
View from above orbital plane
View from above satellite
View from above satellite

Ground track
Ground track

The orbit data is extracted from the following two-line orbital elements,

1  5732U 71120B   16211.77099966 +.00000002 +00000-0 -63077-5 0  9993
2  5732 081.2504 074.5875 0050355 229.0640 130.6164 14.05922910285487
Epoch (UTC): 29 July 2016 18:30:14
Eccentricity: 0.0050355
inclination: 81.2504°
perigee height: 837 km
apogee height: 910 km
right ascension of ascending node: 74.5875°
argument of perigee: 229.0640°
revolutions per day: 14.05922910
mean anomaly at epoch: 130.6164°
orbit number at epoch: 28548

The dashed part of the orbit path shows where the satellite is in the earth's shadow,  

DLR